Regional Weather Roundup
Issued by NWS

Home | Current Version | Previous Version | Text Only | Print | Product List | Glossary Off
Versions: 1 2 3 4 5 6 7 8 9 10 11 12 13 14 15 16 17 18 19 20 21 22 23 24 25 26 27 28 29 30 31 32 33 34 35 36 37 38 39 40 41 42 43 44 45 46 47 48 49 50

000
ASUS43 KOAX 160810
RWRNE

WEATHER ROUNDUP FOR NEBRASKA
NATIONAL WEATHER SERVICE OMAHA NE
200 AM CST SAT DEC 16 2017

NOTES: SATELLITE DATA IS BEING USED TO AUGMENT CLOUD COVER ABOVE
       12000 FEET.
       "FAIR" INDICATES FEW OR NO CLOUDS BELOW 12,000 FEET WITH NO
       SIGNIFICANT WEATHER AND/OR OBSTRUCTIONS TO VISIBILITY.


NEZ001>004-019>022-054>056-160900-
NEBRASKA PANHANDLE

CITY           SKY/WX    TMP DP  RH WIND       PRES   REMARKS
SCOTTSBLUFF    CLEAR     36   8  31 NW5       29.74F WCI  32
ALLIANCE       CLOUDY    27  12  53 NW3       29.73F
CHADRON        CLEAR     28  16  60 CALM      29.73S
GORDON         FAIR      30  20  66 W5        29.71S WCI  25
KIMBALL        CLOUDY    39   5  24 W9        29.77S WCI  33
SIDNEY         CLOUDY    26   7  44 W8        29.76F WCI  18
$$

NEZ057>060-069>072-079>082-160900-
SOUTHWEST NEBRASKA

CITY           SKY/WX    TMP DP  RH WIND       PRES   REMARKS
NORTH PLATTE   CLOUDY    22  16  78 NW5       29.75R WCI  16
IMPERIAL       CLOUDY    25  12  58 CALM      29.74F
LEXINGTON      CLOUDY    25  16  66 W8        29.73F WCI  17
MCCOOK         CLOUDY    27  12  53 W5        29.75S WCI  22
OGALLALA       CLOUDY    29  17  59 W3        29.75S
$$

NEZ005>010-023>029-035>040-094-160900-
NORTH CENTRAL NEBRASKA

CITY           SKY/WX    TMP DP  RH WIND       PRES   REMARKS
VALENTINE      CLOUDY    33  24  69 W6        29.70R WCI  28
AINSWORTH      CLOUDY    35  25  68 W8        29.69S WCI  28
BROKEN BOW     CLOUDY    42  19  39 VRB3      29.71S
O`NEILL        CLOUDY    36  26  66 SW9       29.68R WCI  29
ORD            CLEAR     24  19  81 CALM      29.69S
THEDFORD       CLOUDY    33  19  58 W7        29.72S WCI  26
$$

NEZ041-046>049-061>064-073>077-083>087-160900-
SOUTH CENTRAL NEBRASKA

CITY           SKY/WX    TMP DP  RH WIND       PRES   REMARKS
GRAND ISLAND   CLOUDY    37  18  46 SW14      29.72S WCI  28
AURORA         CLOUDY    33  20  58 SW9       29.72S WCI  26
HASTINGS       CLOUDY    33  16  49 SW5       29.74S WCI  29
HEBRON         CLOUDY    37  21  51 SW6       29.78R WCI  32
HOLDREGE       CLOUDY    35  14  42 SW5       29.74R WCI  31
KEARNEY        CLOUDY    36  13  38 SW8       29.73F WCI  30
YORK           CLOUDY    32  23  69 SW9       29.73F WCI  24
$$

NEZ011>018-030>034-042>045-160900-
NORTHEAST NEBRASKA

CITY           SKY/WX    TMP DP  RH WIND       PRES   REMARKS
NORFOLK        PTCLDY    30  22  72 CALM      29.67S
ALBION         PTCLDY    34  23  64 N3        29.70R
BLAIR          CLEAR     38  23  54 SW9       29.70S WCI  32
COLUMBUS       CLOUDY    34  22  61 SW9       29.71S WCI  27
FREMONT        CLOUDY    39  22  49 SW10      29.70F WCI  33
TEKAMAH        CLEAR     33  20  58 S6        29.69S WCI  28
WAYNE          PTCLDY    34  23  63 CALM      29.66S
$$

NEZ050>053-065>068-078-088>093-160900-
SOUTHEAST NEBRASKA

CITY           SKY/WX    TMP DP  RH WIND       PRES   REMARKS
LINCOLN        CLEAR     41  21  44 SW8       29.76S
OMAHA EPPLEY   CLEAR     33  22  63 S9        29.73F WCI  25
BEATRICE       CLEAR     38  24  57 SW7       29.78S WCI  33
FALLS CITY     CLEAR     38  24  57 S10       29.80S WCI  31
NEBRASKA CITY  CLEAR     41  25  53 SW14      29.76F
PLATTSMOUTH    CLEAR     41  24  49 S13       29.74S
$$

NEZ044-045-051>053-067-160900-
OMAHA AREA

CITY           SKY/WX    TMP DP  RH WIND       PRES   REMARKS
OMAHA EPPLEY   CLEAR     33  22  63 S9        29.73F WCI  25
BLAIR          CLEAR     38  23  54 SW9       29.70S WCI  32
FREMONT        CLOUDY    39  22  49 SW10      29.70F WCI  33
MILLARD        CLEAR     45  23  41 SW6       29.73S
OFFUTT AFB     CLEAR     26  20  76 SE3       29.73S
PLATTSMOUTH    CLEAR     41  24  49 S13       29.74S
WAHOO          FAIR      41  21  44 SW14      29.71S
$$




USA.gov is the U.S. government's official web portal to all federal, state and local government web resources and services.